Regional Weather Roundup
Issued by NWS

Home | Current Version | Previous Version | Text Only | Print | Product List | Glossary Off
Versions: 1 2 3 4 5 6 7 8 9 10 11 12 13 14 15 16 17 18 19 20 21 22 23 24 25 26 27 28 29 30 31 32 33 34 35 36 37 38 39 40 41 42 43 44 45 46 47 48 49 50

000
ASUS43 KMKX 270659
RWRWI

WISCONSIN REGIONAL WEATHER ROUNDUP
NATIONAL WEATHER SERVICE MILWAUKEE/SULLIVAN WI
200 AM CDT FRI MAR 27 2015

NOTE: "FAIR" INDICATES FEW OR NO CLOUDS BELOW 12,000 FEET WITH NO
SIGNIFICANT WEATHER AND/OR OBSTRUCTIONS TO VISIBILITY.

WIZ001-002-006>008-014>016-023>028-270800-
NORTHWEST WISCONSIN

CITY           SKY/WX    TMP DP  RH WIND       PRES   REMARKS
SUPERIOR ARPT  CLEAR     20   4  49 NE10G17   30.27S WCI   9
ASHLAND        CLEAR     18   9  68 N10       30.24S WCI   6
HAYWARD        CLEAR     15   7  70 N3        30.20S
SIREN          CLEAR     20   1  44 N3        30.23S
CUMBERLAND     FAIR      21   7  53 N6        30.20R WCI  14
RICE LAKE      FAIR      19   9  64 N3        30.21S
CHETEK         FAIR      17   9  70 N3        30.20S
LADYSMITH      CLEAR     19   9  65 N7        30.19S WCI   9
EAU CLAIRE     NOT AVBL
MENOMONIE      CLEAR     21   8  57 CALM      30.21S
NEW RICHMOND   CLEAR     21   8  57 N6        30.22S WCI  13
OSCEOLA        CLEAR     22   5  47 CALM      30.26S
$$

WIZ003>005-009-010-017-018-270800-
NORTH CENTRAL WISCONSIN

CITY           SKY/WX    TMP DP  RH WIND       PRES   REMARKS
MANITOWISH WTR CLOUDY    16   8  70 N5        30.13R WCI   9
ARBOR VITAE    LGT SNOW  11   6  79 N5        30.12R WCI   3
WOODRUFF       LGT SNOW  11   6  79 N5        30.12R WCI   3
RHINELANDER    CLOUDY    14   8  77 N5        30.12R WCI   6
EAGLE RIVER    CLEAR     11   6  79 N3        30.12R
LAND O LAKES   MOCLDY    11   7  82 N5        30.13R WCI   3
PHILLIPS       CLOUDY    15   7  69 CALM      30.14S
TOMAHAWK       MOCLDY     2  -2  85 CALM      30.14R
MEDFORD        MOCLDY    10   6  84 W3        30.14S
MERRILL        MOCLDY     7   4  86 CALM      30.13S
$$

WIZ029-030-035-036-043>047-270800-
CENTRAL WISCONSIN

CITY           SKY/WX    TMP DP  RH WIND       PRES   REMARKS
WAUSAU         MOCLDY    16   7  67 NW6       30.13S WCI   7
MOSINEE        CLEAR     14   9  79 NW3       30.15S
MARSHFIELD     CLEAR     14   6  70 NW5       30.15S WCI   6
STEVENS POINT  CLEAR     12   3  69 CALM      30.16S
WAUPACA        CLEAR     20   5  52 CALM      30.17S
WAUTOMA        NOT AVBL
WISC RAPIDS    CLEAR     17   4  56 N5        30.18R WCI  10
CAMP DOUGLAS   CLEAR     18   9  66 N5        30.18R WCI  11
$$

WIZ011>013-019>022-031-037>040-048>050-270800-
NORTHEAST WISCONSIN

CITY           SKY/WX    TMP DP  RH WIND       PRES   REMARKS
ANTIGO         PTCLDY     8   4  84 CALM      30.12R
SHAWANO        CLEAR     19   6  56 NW3       30.16S
OCONTO         CLEAR     18   7  64 N3        30.16R
STURGEON BAY   CLEAR     18   7  62 N10       30.15S WCI   6
GREEN BAY      CLEAR     20   8  60 N7        30.16R WCI  11
MANITOWOC      NOT AVBL
APPLETON       CLEAR     19   5  53 N7        30.15R WCI  10
CLINTONVILLE   CLEAR     19   7  58 NW5       30.16S WCI  13
OSHKOSH        CLOUDY    21   4  47 N15G25    30.14R WCI   8
$$

WIZ032>034-041-042-053>061-270800-
SOUTHWEST WISCONSIN

CITY           SKY/WX    TMP DP  RH WIND       PRES   REMARKS
LA CROSSE      CLEAR     25  10  53 NE9       30.20R WCI  15
SPARTA         CLEAR     20   8  57 N3        30.20R
VIROQUA        CLEAR     22  11  64 NE9       30.15R WCI  11
BOSCOBEL       CLEAR     27  10  49 NE9G16    30.18R WCI  18
PRAIRIE DU CHI CLOUDY    31  16  53 N6        30.16R WCI  25
PLATTEVILLE    CLOUDY    29  20  69 N14       30.12S WCI  18
$$

WIZ056-057-062-063-064-067-068-270800-
SOUTH CENTRAL WISCONSIN

CITY           SKY/WX    TMP DP  RH WIND       PRES   REMARKS
REEDSBURG      CLEAR     22   8  54 N10       30.16R WCI  11
BARABOO/DELLS  CLEAR     21   6  51 N9        30.15R WCI  11
LONE ROCK      NOT AVBL
MINERAL POINT  CLOUDY    28  14  54 N9        30.12S WCI  20
MADISON        CLEAR     22   7  52 N8        30.13S WCI  12
MIDDLETON      CLEAR     26  10  50 N10G16    30.14R WCI  16
WATERTOWN      CLEAR     23  12  62 NW7       30.11S WCI  15
MONROE         CLEAR     27  18  69 N8        30.10S WCI  18
JANESVILLE     PTCLDY    30  16  55 N9        30.11S WCI  22
$$

WIZ051-052-058>065-066-070>072-270800-
SOUTHEAST WISCONSIN

CITY           SKY/WX    TMP DP  RH WIND       PRES   REMARKS
MILWAUKEE      LGT SNOW  26  20  77 N9        30.10S WCI  17
WAUKESHA       CLOUDY    27  16  63 NW10      30.10S WCI  17
MILWAUKEE/TIMM CLOUDY    27  19  74 N10       30.11S WCI  17
RACINE         LGT SNOW  26  22  84 N10       30.11S FOG     WCI  16
BURLINGTON     FLURRIES  26  19  73 N10       30.09S WCI  17
KENOSHA        FLURRIES  27  23  85 N14       30.09S WCI  16
FOND DU LAC    CLOUDY    22   7  52 N17       30.14S WCI   8
SHEBOYGAN      CLOUDY    20   7  57 N15       30.13R WCI   6
WEST BEND      CLOUDY    23  19  86 N7        30.10S WCI  15
JUNEAU         CLEAR     21  13  70 NW6       30.12S WCI  14
$$

LSZ147-162-270800-
LAKE SUPERIOR

STATION/POSITION TIME  TEMP    WIND        PRES    WAVE
                       AIR SEA DIR/SP/G            HT/PER
                 (UTC) (F)     (DEG/KT/KT) (MB)    (FT/S)
DEVILS ISLAND    0600   22      20/ 15/ 19 1025.7R
PORT WING        0640   23      20/ 15/ 20 1024.4S
SAXON HARBOR     0500   25      30/ 19/ 24 1022.7R
$$

LMZ867-665-643>646-270800-
LAKE MICHIGAN

STATION/POSITION TIME  TEMP    WIND        PRES    WAVE
                       AIR SEA DIR/SP/G            HT/PER
                 (UTC) (F)     (DEG/KT/KT) (MB)    (FT/S)
NORTHPORT PIER   0610   20     330/ 16/ 23 1020.3R
SISTER BAY       0602   19     340/ 16/ 19   N/A
KEWAUNEE LAKESHO 0618   19     340/ 11/ 14 1019.9R
SHEBOYGAN LAKESH 0600   24     360/ 23/ 25 1021.1R
PORT WASHINGTON  0600   26     360/  6/  9 1020.3S
MILWAUKEE LAKESH 0600   27      30/ 14/ 16   N/A
KENOSHA   LAKESH 0600   28      20/ 15/ 19 1019.0S
$$

TC  - TEMPERATURE IN CELSIUS
VSB - VISIBILITY IN STATUTE MILES
WCI - WIND CHILL INDEX
HX  - HEAT INDEX




USA.gov is the U.S. government's official web portal to all federal, state and local government web resources and services.